Simultaneous Nadir Overpasses (SNOs) Predictions

Prediction of SNOs between METOP-C and LANDSAT-8 Satellite Orbit:

Table of predicted SNOs for the next 14.0 days since TLE Epoch: 4/10/2021
Index Date (METOP-C) Time (METOP-C) Lat,Lon (METOP-C) SZA (METOP-C ) Date (LANDSAT-8) Time (LANDSAT-8) Lat,Lon (LANDSAT-8) SZA (LANDSAT-8 ) Distance(km) Time Diff (sec)
1 04/12/2021 11:18:43 81.06, 48.49 74.11 04/12/2021 11:19:51 81.06, 48.48 74.13 0.39 68
2 04/12/2021 12:09:20 -81.10,-143.02 105.76 04/12/2021 12:09:16 -81.10,-143.20 105.78 3.16 4
3 04/15/2021 06:53:05 81.07, 115.08 73.14 04/15/2021 06:54:05 81.06, 114.93 73.14 2.92 60
4 04/15/2021 07:43:44 -81.08, -77.17 106.82 04/15/2021 07:43:31 -81.08, -77.09 106.82 1.39 13
5 04/18/2021 02:27:27 81.06,-178.72 72.14 04/18/2021 02:28:18 81.06,-178.66 72.17 1.06 51
6 04/18/2021 03:18:04 -81.10, -10.22 107.72 04/18/2021 03:17:43 -81.11, -10.29 107.74 1.30 21
7 04/20/2021 22:01:48 81.08,-111.80 71.26 04/20/2021 22:02:31 81.08,-111.92 71.26 2.08 43
8 04/20/2021 22:52:27 -81.10, 55.97 108.70 04/20/2021 22:51:57 -81.10, 56.11 108.69 2.54 30
9 04/23/2021 17:36:11 81.07, -45.64 70.30 04/23/2021 17:36:45 81.07, -45.57 70.33 1.32 34



Historial Predications of SNOs between METOP-C and LANDSAT-8
